DMSP 5D-2 F13 DEB, 40441

Orbit data source: Space-Track

DMSP 5D-2 F13 DEB, 40441 is space debris in SSO originally from a launch on Fri, 24 Mar 1995 UTC launched from the Air Force Western Test Range (AFWTR). Debris objects in space refer to the collection of defunct objects orbiting the Earth. Examples of debris include non-operational satellites, rocket bodies, and fragments generated from explosions, collisions, or faulty payload assembly.

Loading next visibility...
Identifier
40441, 1995-015AT
Orbit
SSO
Country
Flag of USUS
Related business
Manufacturer
Unknown
Mission
Spacecraft
Bus & Motor
Unknown
Mass
Unknown
Launch date (UTC)
1995-03-24 (31 years ago)
Launch vehicle
Unknown
Launch site
Air Force Western Test Range (AFWTR)
Object type
Payload
Rocket body
Debris
Shape & HBR
Unknown shape, 0.1 m
Radar Cross Section
Small (<0.1 m²)

Expand to show TLE details & history
Last TLE update: 10 hours ago

TLE from 10 hours ago
0 DMSP 5D-2 F13 DEB
1 40441U 95015AT  25304.58615714  .00002791  00000-0  12440-2 0  9996
2 40441  98.8324 323.7554 0021909 176.0963 184.0390 14.23488344551097
Epoch: 2025-10-31T14:04Z
TLE epoch observation values (Epoch: 2025-10-31T14:04:03.976Z)
Latitude
-0.00003°
Longitude
72.61037°
Altitude
832.215 km
Speed
7.429 km/s
True Right ascension
21h 35m 01s
True Declination
0° 00' 00"
Sunlit
Object was in daylight at epoch
Visualization orbit readout
Latitude
Unknown
Longitude
Unknown
Altitude
Unknown
Speed
Unknown
Apparent Right ascension
Unknown
Apparent Declination
Unknown
Sunlit
N/A
Visualization observer readout
Local Sidereal Time
19:51:21
Azimuth
Unknown
Elevation
Unknown
Doppler factor
Unknown
Orbital elements
Apogee altitude
826.49 km
Perigee altitude
794.989 km
Semi-major axis
7,188.876 km
Eccentricity
0.00219
Inclination
98.8324°
RAAN
323.7554°
Arg. of periapsis
176.0963°
True anomaly
184.02136°
Mean anomaly
184.039°
Eccentric anomaly
184.03018°
Mean motion
3.56083 °/min
Orbital period
101.1 mins
BSTAR
0.001244

Documentation

Showing up to 5 results
|